Regional Weather Roundup
Issued by NWS

Home | Current Version | Previous Version | Text Only | Print | Product List | Glossary Off
Versions: 1 2 3 4 5 6 7 8 9 10 11 12 13 14 15 16 17 18 19 20 21 22 23 24 25 26 27 28 29 30 31 32 33 34 35 36 37 38 39 40 41 42 43 44 45 46 47 48 49 50

000
ASUS43 KLOT 240308
RWRIL

ILLINOIS REGIONAL WEATHER ROUNDUP
NATIONAL WEATHER SERVICE CHICAGO/ROMEOVILLE IL
1000 PM CDT MON MAY 23 2016

NOTE: "FAIR" INDICATES FEW OR NO CLOUDS BELOW 12,000 FEET WITH NO
SIGNIFICANT WEATHER AND/OR OBSTRUCTIONS TO VISIBILITY.

* THESE STATIONS ARE NOT UNDER NWS QUALITY CONTROL. THEY ALSO MAY NOT
  REPORT WEATHER SUCH AS PRECIPITATION OR FOG.

ILZ001-002-007-009-015-016-024-240400-
NORTHWEST ILLINOIS

CITY           SKY/WX    TMP DP  RH WIND       PRES   REMARKS
MOLINE         PTCLDY    65  50  58 CALM      29.88R
STERLING*      PTCLDY    70  50  49 CALM      29.90R
SAVANNA*       PTCLDY    69  52  55 S5        29.88R
$$

ILZ003-004-008-010-011-017-018-240400-
NORTH CENTRAL ILLINOIS

CITY           SKY/WX    TMP DP  RH WIND       PRES   REMARKS
ROCKFORD       PTCLDY    72  47  40 S5        29.91R
FREEPORT*      CLEAR     64  47  54 S7        29.91R
ROCHELLE*      CLOUDY    68  47  47 S10       29.91R
DE KALB*       CLOUDY    66  48  52 S7        29.92R
$$

ILZ005-006-012>014-019>023-240400-
NORTHEAST ILLINOIS

CITY           SKY/WX    TMP DP  RH WIND       PRES   REMARKS
CHICAGO-OHARE  MOCLDY    65  40  39 SE9       29.91S
CHICAGO-MIDWAY MOCLDY    70  42  36 SE6       29.92R
AURORA         CLOUDY    67  46  47 SE6       29.92R
LANSING*       PTCLDY    65  39  37 SE3       29.94R
JOLIET*        CLOUDY    68  44  42 SE3       29.92R
WAUKEGAN       CLEAR     64  41  42 SE7       29.92R
DUPAGE AIRPORT CLOUDY    67  42  40 SE7       29.91R
KANKAKEE*      PTCLDY   N/A N/A N/A S8        29.95R
WHEELING       CLEAR     63  40  42 SE3       29.93R
MORRIS*        PTCLDY    70  47  43 S3        29.91R
ROMEOVILLE*    PTCLDY    67  37  33 S10       29.92R
NORTHERLY ISL    N/A     60  47  61 E2          N/A
NORTHERLY ISL    N/A     60  47  61 E2          N/A
$$

LMZ740>746-240400-
SOUTHERN LAKE MICHIGAN

STATION/POSITION SKY/WX   TEMP    WIND        PRES    VSBY  WAVE
                          AIR SEA DIR/SP/G                  HT/PER
                          (F)     (DEG/KT/KT) (MB)    (MI)  (FT/S)
SOUTHERN BUOY              55 50  120/ 10/ 12 1013.2R         0
WILMETTE HARBOR            58 54  180/  8/ 10   N/A           1/ 2
HARRISON CRIB              60     130/ 10/ 11   N/A
BURNHAM HARBOR             59      CALM  /  3   N/A
CALUMET HARBOR             63     100/  6/  9 1012.7
BURNS HARBOR               75     160/  8/ 16 1014.2S
MICHIGAN CITY              71     120/  6/  7   N/A
MICHIGAN CITY 6N           64 58  150/  6/  8   N/A           0
ST. JOSEPH                 65 60  130/  8/ 10   N/A           0
$$

ILZ025>027-034>036-040-047-049-050-058-095>099-240400-
WEST-CENTRAL ILLINOIS

CITY           SKY/WX    TMP DP  RH WIND       PRES   REMARKS
QUINCY         MOCLDY    71  49  45 S8        29.90R
GALESBURG*     PTCLDY    66  50  56 SE3       29.91R
MACOMB*        CLOUDY    67  50  54 S6        29.92R
JACKSONVILLE*  CLOUDY    72  52  48 S6        29.92R
PITTSFIELD*    MOCLDY    71  53  53 S5        29.92R
$$

ILZ028>032-037-038-041>044-048-051>054-059>061-240400-
CENTRAL ILLINOIS

CITY           SKY/WX    TMP DP  RH WIND       PRES   REMARKS
PONTIAC        CLEAR     74  46  37 S13       29.94R
BLOOMINGTON    CLOUDY    69  50  50 SE12      29.95R
DECATUR        CLOUDY    70  51  51 S9        29.95R
PEORIA         CLOUDY    70  48  45 CALM      29.91R
LACON*         CLOUDY    64  51  61 SE3       29.90R
LINCOLN*       CLOUDY    72  51  48 S3        29.92R
SPRINGFIELD    CLOUDY    73  50  44 S9        29.93R
TAYLORVILLE    CLOUDY    68  54  60 S6        29.95R
$$

ILZ033-039-045-046-055>057-062-063-240400-
EAST-CENTRAL ILLINOIS

CITY           SKY/WX    TMP DP  RH WIND       PRES   REMARKS
CHAMPAIGN      CLOUDY    69  46  43 SE9       29.96R
RANTOUL*       CLEAR     70  46  42 S8        29.96R
MATTOON        CLOUDY    66  48  52 SE8       29.96R
PARIS*         PTCLDY    65  48  53 SE3       29.99R
$$

ILZ079-100>102-240400-
SOUTHWEST ILLINOIS

CITY           SKY/WX    TMP DP  RH WIND       PRES   REMARKS
ALTON          CLEAR     70  54  56 S6        29.93S
BELLEVILLE     CLOUDY    68  58  70 CALM      29.94R
CAHOKIA*       MOCLDY    68  57  68 SE6       29.94R
SPARTA*        PTCLDY    70  56  60 S3        29.97R
$$

ILZ064>066-069>071-074>076-080>082-084>086-088>090-092>094-240400-
SOUTH-CENTRAL ILLINOIS

CITY           SKY/WX    TMP DP  RH WIND       PRES   REMARKS
CARBONDALE     PTCLDY    65  58  78 CALM      29.97R
CAIRO*         PTCLDY    65  61  87 CALM      29.97R
EFFINGHAM*     CLOUDY    65  58  77 E5        29.98R
MARION         PTCLDY    64  59  82 CALM      29.98R
MT. VERNON     CLOUDY    64  55  72 CALM      29.98R
CENTRALIA*     CLOUDY    68  60  74 SE3       29.96R
SALEM*         CLOUDY    71  55  56 CALM      29.96R
METROPOLIS*    MOCLDY    66  62  87 CALM      29.98R
$$

ILZ067-068-072-073-078-083-087-091-240400-
SOUTHEAST ILLINOIS

CITY           SKY/WX    TMP DP  RH WIND       PRES   REMARKS
LAWRENCEVILLE  PTCLDY    65  54  67 SE3       29.99R
FLORA*         CLEAR     67  58  72 SE6       29.97R
FAIRFIELD*     CLEAR     69  52  53 SE3       29.96R
HARRISBURG*    CLOUDY    69  61  75 CALM      29.98R
ROBINSON*      PTCLDY    60  53  76 CALM      29.99R
CARMI*         CLEAR     66  57  73 SE3       29.98R
$$

ABBREVIATIONS USED IN REMARKS
   TC - TEMPERATURE IN CELSIUS
  WCI - WIND CHILL INDEX
   HX - HEAT INDEX
  VSB - VISIBILITY
$$




USA.gov is the U.S. government's official web portal to all federal, state and local government web resources and services.